Wind_Speed
44 44 45 45 45 46 46 46 46 47 47 48 49 48 48 48 49 49 50 50 51 51 52 52 53 53 53 53 54 54 53 53 53 53 52 53 53 53
42 43 44 45 45 45 46 46 46 47 48 48 48 49 49 50 50 51 52 52 53 54 54 54 54 54 54 55 55 55 55 54 54 55 55 54 54 54
42 43 44 44 44 45 46 46 47 47 48 48 49 50 51 52 52 53 54 54 54 54 55 55 55 55 55 55 55 56 56 56 56 56 56 56 56 55
43 44 45 44 44 45 45 46 47 48 48 49 50 51 52 53 54 55 55 54 54 54 55 56 56 56 56 56 57 57 57 57 57 57 57 57 57 57
44 44 44 45 45 46 46 47 48 48 48 50 51 52 53 54 54 55 55 55 55 55 55 56 56 56 57 57 58 58 58 58 58 57 58 58 57 57
44 45 45 46 46 47 47 48 49 49 50 51 52 53 54 55 55 55 55 56 56 55 55 56 56 57 58 58 58 58 58 57 57 58 58 58 57 57
45 45 45 46 46 47 48 48 49 50 52 52 53 54 54 55 55 55 55 55 56 56 56 57 56 57 57 58 57 57 57 57 58 58 59 58 58 57
44 45 45 46 47 48 49 50 51 52 53 53 53 54 54 55 55 55 55 55 56 56 57 56 56 56 56 57 57 58 58 59 59 59 58 58 57 56
44 45 46 48 49 50 51 52 53 54 54 55 54 54 55 55 55 55 56 56 56 56 56 56 57 56 56 57 58 58 58 59 59 58 57 56 56 55
46 47 48 49 51 52 52 53 53 54 54 54 54 54 55 55 56 56 56 56 56 57 57 57 57 57 57 57 57 57 57 56 56 56 55 55 54 54
49 49 49 50 50 51 52 53 53 53 53 54 54 55 56 56 56 57 57 57 56 56 57 57 56 56 56 56 56 56 55 54 54 53 53 53 53 52
50 51 51 51 51 51 52 53 53 53 54 54 54 54 55 55 56 56 57 57 56 56 55 56 55 55 54 55 55 55 54 53 53 52 51 51 51 50
48 49 50 51 51 52 53 54 54 54 54 55 54 54 55 55 55 55 56 55 55 54 54 54 54 54 54 54 54 54 53 53 51 51 50 49 48 47
47 49 50 51 52 52 52 53 54 54 54 54 54 54 54 54 54 54 55 55 54 53 53 53 53 53 53 53 52 52 52 51 50 50 49 48 47 47
48 49 50 51 51 52 52 53 53 53 53 53 53 54 53 53 53 53 53 52 52 52 52 52 53 53 53 52 51 51 50 50 50 49 48 47 46 46
47 47 48 49 50 50 51 52 52 52 53 53 52 52 52 52 52 51 51 51 51 51 51 51 52 51 51 51 50 49 49 48 48 47 46 45 46 45
45 45 46 46 47 48 49 50 51 51 51 51 50 49 49 49 49 50 50 50 49 49 49 49 49 49 49 48 47 47 46 45 45 44 44 44 43 43
44 44 44 45 46 46 47 48 49 49 48 48 48 47 47 47 47 47 47 46 46 46 46 46 46 46 45 44 44 44 43 43 42 42 42 42 41 40
43 44 44 45 45 46 47 47 47 47 47 47 46 46 45 45 44 44 44 44 44 43 43 43 43 43 42 42 41 42 42 41 40 40 40 39 38 36
43 44 44 45 45 46 46 46 46 46 45 45 44 43 43 42 42 42 42 41 41 41 40 40 41 41 41 41 40 40 40 39 38 37 37 36 34 32
44 44 45 45 45 45 45 45 44 43 43 42 41 40 40 40 39 39 39 38 38 38 38 39 40 40 40 40 38 37 36 36 35 34 33 32 30 28
44 44 45 45 45 44 44 43 42 41 40 39 38 38 38 37 37 37 36 36 36 37 38 38 38 38 37 37 35 33 33 32 32 31 30 28 26 25
44 43 43 42 42 42 42 40 39 38 37 37 37 37 36 35 35 35 35 35 35 36 36 36 36 35 34 33 32 30 29 28 28 27 25 24 23 22
Wind_Direction
254 256 258 259 261 263 265 267 268 270 271 273 274 274 274 274 275 277 278 279 281 282 283 284 285 285 286 286 286 286 286 286 286 286 286 286 285 285
255 256 258 259 261 264 266 267 269 270 272 274 274 275 275 275 276 277 278 279 281 282 284 284 284 286 286 286 286 286 286 286 286 286 286 285 284 284
255 257 259 260 262 264 265 266 268 270 272 274 276 277 277 278 278 278 278 280 281 282 283 284 285 285 286 286 286 286 286 286 286 286 285 284 284 283
257 259 260 260 261 263 265 267 269 271 273 275 276 277 278 278 279 280 280 281 282 283 283 284 285 286 286 286 286 286 286 285 285 284 284 283 284 283
257 259 259 260 261 263 265 267 270 272 274 276 276 277 277 278 280 281 281 281 281 283 284 285 285 285 285 285 286 286 285 285 284 283 283 283 283 283
256 258 259 260 262 264 266 269 271 273 275 276 276 277 278 279 280 281 282 283 283 283 284 285 285 285 285 286 286 286 285 284 284 284 284 284 283 283
257 258 260 261 263 266 268 270 272 273 275 275 277 277 278 279 280 281 282 283 283 284 284 284 285 285 285 285 285 284 284 284 284 285 284 284 283 283
259 261 262 264 266 268 270 271 273 275 276 276 277 278 279 280 280 281 282 283 284 284 284 284 284 285 285 285 285 285 284 285 285 285 285 283 283 283
261 263 265 267 268 270 272 273 274 275 276 276 277 279 280 280 280 281 282 283 284 284 285 285 285 285 285 286 286 286 286 286 286 286 285 284 284 282
263 264 266 268 269 271 273 274 275 275 275 276 277 278 278 279 280 281 283 283 283 284 284 285 284 285 285 286 287 287 287 287 287 286 286 285 284 282
264 265 267 269 271 272 273 274 275 275 276 277 277 278 279 280 281 282 283 283 283 283 284 285 285 285 286 286 287 287 288 287 287 286 286 285 284 283
268 268 269 271 272 273 274 274 275 275 275 276 278 278 279 280 281 282 283 283 283 284 284 284 285 285 286 286 287 288 287 287 287 286 286 285 284 283
271 271 271 272 274 275 275 276 276 276 276 277 278 278 279 280 281 281 282 283 284 284 284 285 285 285 286 287 287 287 287 287 286 286 286 286 284 284
273 273 273 274 276 276 277 277 277 278 278 278 278 279 279 280 280 281 282 283 283 284 285 285 285 286 287 287 287 287 286 286 286 286 286 285 284 284
274 274 274 275 276 277 277 277 278 278 279 279 279 279 279 280 281 282 283 284 284 285 285 285 286 287 288 288 288 287 286 286 286 286 285 284 283 283
275 276 276 276 277 277 277 278 278 279 279 280 280 280 281 281 281 282 283 284 284 285 285 286 286 287 288 289 289 288 286 286 285 285 284 284 283 282
277 277 277 277 278 278 278 278 279 279 280 281 281 281 281 281 282 283 283 283 283 284 285 286 287 288 289 289 289 289 288 286 285 285 285 285 283 282
278 278 279 279 279 280 280 280 280 280 281 282 282 281 282 282 283 283 283 283 284 285 286 286 287 289 289 290 290 290 288 287 286 286 286 285 284 282
279 280 280 281 281 281 281 281 282 282 282 282 281 281 281 282 282 282 283 283 284 285 286 287 287 289 289 289 290 290 289 288 287 287 287 286 284 282
280 280 281 282 282 283 283 283 283 283 282 281 281 280 281 281 282 283 283 283 284 285 286 288 289 290 290 291 290 290 289 289 288 288 287 285 283 280
281 281 281 282 283 283 283 284 284 283 281 280 280 281 281 282 282 282 282 283 284 285 286 288 290 291 292 292 291 290 289 289 289 288 287 284 281 278
281 282 282 282 282 282 283 283 282 281 280 280 280 280 281 281 282 283 283 283 283 285 287 289 290 291 292 292 292 290 290 290 290 289 288 284 282 278
281 281 282 282 282 282 282 281 280 280 280 280 280 280 280 280 281 282 282 282 284 286 288 290 291 291 291 292 291 291 291 291 290 290 288 285 283 279
Height
5712 5714 5716 5717 5718 5719 5719 5720 5720 5719 5719 5717 5716 5715 5713 5711 5709 5708 5706 5704 5701 5699 5697 5694 5691 5689 5686 5683 5680 5678 5675 5672 5669 5666 5664 5661 5658 5656
5701 5703 5704 5706 5707 5707 5708 5708 5708 5707 5707 5705 5704 5702 5700 5699 5697 5695 5693 5691 5688 5685 5683 5680 5677 5674 5671 5668 5666 5663 5660 5657 5654 5651 5649 5646 5643 5641
5690 5691 5693 5694 5695 5695 5695 5696 5696 5695 5695 5693 5691 5690 5688 5686 5684 5682 5679 5677 5674 5671 5668 5665 5662 5659 5656 5653 5650 5647 5644 5641 5638 5635 5632 5630 5627 5625
5678 5680 5681 5682 5682 5683 5683 5683 5683 5682 5682 5681 5679 5677 5675 5672 5670 5668 5665 5663 5660 5657 5653 5650 5647 5644 5641 5638 5634 5631 5628 5625 5622 5619 5617 5614 5611 5608
5667 5668 5669 5670 5670 5671 5671 5670 5670 5669 5669 5668 5666 5663 5661 5658 5656 5654 5651 5648 5645 5641 5638 5635 5632 5628 5625 5622 5618 5615 5612 5609 5606 5603 5600 5597 5594 5592
5655 5656 5657 5657 5657 5657 5657 5657 5656 5656 5655 5653 5652 5649 5647 5644 5642 5639 5637 5633 5630 5627 5623 5620 5617 5613 5610 5606 5602 5599 5595 5592 5589 5586 5584 5581 5578 5575
5642 5643 5644 5644 5644 5644 5644 5643 5643 5641 5640 5639 5637 5635 5633 5630 5628 5625 5622 5619 5616 5612 5608 5605 5602 5598 5594 5590 5586 5582 5579 5576 5573 5570 5567 5564 5561 5558
5630 5631 5631 5631 5631 5631 5630 5629 5628 5627 5626 5624 5622 5620 5618 5615 5613 5610 5607 5605 5602 5599 5594 5590 5586 5582 5578 5574 5570 5566 5563 5560 5556 5553 5550 5547 5544 5541
5617 5618 5618 5618 5617 5617 5616 5615 5613 5612 5610 5609 5607 5605 5603 5600 5598 5595 5592 5589 5586 5582 5578 5576 5571 5567 5563 5558 5554 5551 5547 5543 5540 5536 5533 5530 5527 5524
5604 5604 5604 5604 5603 5602 5601 5600 5598 5596 5595 5593 5592 5590 5587 5584 5582 5579 5577 5574 5571 5566 5562 5560 5556 5552 5548 5544 5539 5535 5531 5527 5523 5520 5516 5513 5510 5507
5590 5590 5590 5589 5589 5587 5587 5585 5584 5582 5579 5578 5576 5574 5571 5568 5566 5563 5561 5558 5556 5552 5546 5544 5540 5537 5533 5529 5524 5519 5515 5511 5508 5504 5501 5497 5494 5491
5576 5576 5575 5574 5573 5572 5571 5569 5568 5567 5565 5563 5561 5558 5556 5553 5550 5547 5544 5542 5539 5536 5532 5528 5524 5520 5519 5515 5509 5504 5500 5496 5492 5489 5486 5482 5479 5476
5562 5561 5560 5559 5558 5557 5556 5554 5553 5551 5549 5547 5545 5543 5540 5538 5535 5531 5528 5526 5523 5520 5516 5512 5509 5505 5501 5500 5496 5490 5485 5481 5477 5474 5471 5467 5464 5462
5548 5547 5546 5545 5543 5542 5541 5539 5537 5536 5534 5532 5530 5528 5525 5523 5519 5516 5513 5510 5507 5504 5500 5497 5494 5490 5486 5483 5481 5476 5471 5466 5463 5460 5456 5453 5451 5448
5533 5532 5531 5530 5529 5527 5526 5524 5522 5520 5518 5517 5515 5512 5510 5507 5504 5501 5498 5495 5492 5489 5485 5481 5478 5474 5471 5467 5465 5461 5457 5453 5449 5446 5443 5440 5437 5434
5518 5517 5516 5515 5514 5512 5510 5508 5507 5505 5503 5501 5499 5497 5494 5492 5489 5486 5483 5480 5478 5474 5470 5466 5462 5459 5456 5452 5449 5446 5442 5439 5436 5431 5429 5426 5424 5421
5504 5503 5502 5501 5499 5497 5495 5493 5491 5490 5488 5486 5484 5481 5479 5476 5474 5471 5469 5466 5463 5460 5457 5452 5448 5445 5441 5438 5434 5431 5427 5424 5421 5418 5416 5413 5411 5408
5491 5490 5489 5487 5486 5484 5481 5479 5477 5475 5473 5471 5469 5466 5464 5462 5460 5457 5454 5452 5449 5446 5443 5439 5435 5431 5428 5425 5422 5418 5415 5411 5408 5405 5402 5400 5399 5396
5478 5477 5476 5474 5472 5470 5468 5465 5463 5461 5458 5456 5454 5452 5450 5448 5446 5444 5441 5438 5436 5433 5430 5426 5422 5419 5416 5414 5410 5405 5402 5399 5396 5394 5391 5388 5387 5385
5465 5464 5462 5460 5458 5456 5454 5451 5449 5447 5444 5442 5440 5439 5437 5435 5433 5431 5428 5426 5423 5421 5418 5414 5411 5407 5404 5402 5399 5396 5391 5388 5385 5383 5380 5377 5376 5374
5452 5450 5448 5446 5444 5442 5440 5437 5435 5433 5431 5429 5427 5426 5424 5422 5421 5419 5416 5414 5412 5409 5407 5404 5400 5396 5393 5390 5388 5385 5381 5377 5374 5372 5370 5368 5367 5365
5438 5436 5434 5432 5430 5428 5426 5424 5422 5420 5418 5416 5415 5414 5412 5411 5409 5407 5405 5403 5401 5398 5396 5393 5389 5386 5382 5379 5377 5374 5372 5369 5365 5363 5361 5359 5358 5357
5424 5422 5420 5418 5416 5414 5413 5411 5409 5408 5406 5405 5404 5402 5401 5399 5398 5396 5394 5392 5390 5388 5385 5382 5379 5376 5373 5370 5367 5365 5363 5360 5358 5355 5354 5352 5351 5350